Location: Unspecified
(0.0000°N, 0.0000°E)
Time: 15:51:02
(UTC+00:00)

CZ-3C DEB - Pass Details

Date: 15 February 2026
Orbit: 380 x 28980 km, 20.3° (Epoch: 21 March)

Event Time Altitude Azimuth Distance (km) Brightness Sun altitude
Rises 18:20:10 0° 262° (W) 12,979 ? -1.5°
Reaches altitude 10° 18:29:26 10° 265° (W) 14,129 ? -3.7°
Enters shadow 00:55:37 35° 303° (WNW) 12,612 ? -73.9°
